This is the latest recevied weather packets stored in our database for station/object KA1AL. If no packets are shown the sender has not sent any weather packets the latest 10 day(s).
| Time | Temp. | Humidity | Pressure | Rain* | Wind** | Luminosity | Snow |
|---|---|---|---|---|---|---|---|
| 1777562289 | 5.56° C | 99% | 1009 hPa | 1.78 mm | - | 222 W/m² | - |
| 1777561986 | 5.56° C | 99% | 1008.7 hPa | 3.56 mm | - | 193 W/m² | - |
| 1777561683 | 5.56° C | 99% | 1008.9 hPa | 3.05 mm | - | 133 W/m² | - |
| 1777561378 | 5.56° C | 99% | 1009.1 hPa | 3.05 mm | - | 124 W/m² | - |
| 1777561074 | 5.56° C | 99% | 1009.2 hPa | 3.05 mm | - | 142 W/m² | - |
| 1777560769 | 5.56° C | 99% | 1009.3 hPa | 1.27 mm | - | 108 W/m² | - |
| 1777560467 | 5.56° C | 99% | 1009.5 hPa | 0 mm | - | 128 W/m² | - |
| 1777560164 | 5.56° C | 99% | 1009.4 hPa | 1.78 mm | - | 124 W/m² | - |
| 1777559861 | 5.56° C | 99% | 1009.3 hPa | 1.78 mm | - | 129 W/m² | - |
| 1777559557 | 5.56° C | 99% | 1009.3 hPa | 1.78 mm | - | 125 W/m² | - |
| 1777559254 | 5° C | 99% | 1009.5 hPa | 1.27 mm | - | 105 W/m² | - |
| 1777558950 | 5° C | 99% | 1009.6 hPa | 1.27 mm | - | 128 W/m² | - |
| 1777558646 | 5.56° C | 99% | 1009.7 hPa | 0 mm | - | 110 W/m² | - |
| 1777558341 | 5° C | 99% | 1009.3 hPa | 0 mm | - | 110 W/m² | - |
| 1777558038 | 5° C | 99% | 1009.6 hPa | 0 mm | - | 108 W/m² | - |
| 1777557734 | 5° C | 99% | 1009.6 hPa | 1.78 mm | - | 160 W/m² | - |
| 1777557431 | 5° C | 99% | 1009.6 hPa | 4.83 mm | - | 99 W/m² | - |
| 1777557128 | 5° C | 99% | 1009.7 hPa | 4.32 mm | - | 98 W/m² | - |
| 1777556823 | 5° C | 99% | 1009.6 hPa | 4.32 mm | - | 87 W/m² | - |
| 1777556520 | 5° C | 99% | 1009.4 hPa | 4.83 mm | - | 90 W/m² | - |
| 1777556219 | 5° C | 99% | 1009.8 hPa | 3.56 mm | - | 78 W/m² | - |
| 1777555915 | 5° C | 99% | 1009.7 hPa | 1.78 mm | - | 77 W/m² | - |
| 1777555611 | 5° C | 99% | 1009.7 hPa | 3.05 mm | - | 77 W/m² | - |
| 1777555308 | 5° C | 99% | 1009.7 hPa | 6.1 mm | - | 75 W/m² | - |
| 1777555004 | 5° C | 99% | 1009.8 hPa | 6.1 mm | - | 64 W/m² | - |
* Rain latest hour (hover to see other rain measurements)
** Current wind speed in m/s (hover to see current wind gust speed)